Location: Agadir Irigdalene
(31.2522°N, 8.7797°W)
Time: 05:45:00
(UTC+00:00)

ERS-2 - Pass Details

Date: 01 December 2020
Orbit: 492 x 498 km, 98.6° (Epoch: 25 January)

Event Time Altitude Azimuth Distance (km) Brightness Sun altitude
Rises 18:11:01 0° 16° (NNE) 2,591 5.4 -8.5°
Reaches altitude 10° 18:13:07 10° 19° (NNE) 1,704 4.5 -8.9°
Maximum altitude 18:16:45 67° 102° (ESE) 543 2.1 -9.6°
Drops below altitude 10° 18:20:22 10° 185° (S) 1,691 5.1 -10.4°
Sets 18:22:26 0° 188° (S) 2,569 6.1 -10.8°
